CCM69 LFKJ-LFML

Flight info

Callsign CCM69
Flight time 0h 43m
Altitude 24000
Route TINOT
Aircraft A20N/M-SDE2E3FGHIRWXY/LB1

Departure

Time 2026-04-23 19:15
Airport Ajaccio Napoléon Bonaparte airport (LFKJ)

Arrival

Time 2026-04-23 19:58
Airport Marseille Provence Airport (LFML)
Time Latitude Longitude Altitude Speed Heading
2026-04-23 18:26 41.91809 8.79464 27 ft 0 kts 346°
2026-04-23 19:05 41.91808 8.79464 24 ft 1 kts 346°
2026-04-23 19:06 41.91793 8.79469 24 ft 2 kts 347°
2026-04-23 19:06 41.91778 8.79474 24 ft 2 kts 332°
2026-04-23 19:06 41.91767 8.79487 24 ft 2 kts 305°
2026-04-23 19:06 41.91761 8.79504 24 ft 1 kts 314°
2026-04-23 19:07 41.91747 8.79512 24 ft 2 kts 359°
2026-04-23 19:07 41.91733 8.79507 24 ft 1 kts 33°
2026-04-23 19:07 41.91729 8.79503 25 ft 0 kts 29°
2026-04-23 19:11 41.91740 8.79511 25 ft 5 kts 27°
2026-04-23 19:11 41.91799 8.79548 25 ft 13 kts 24°
2026-04-23 19:11 41.91902 8.79612 24 ft 19 kts 25°
2026-04-23 19:12 41.92034 8.79694 24 ft 22 kts 25°
2026-04-23 19:12 41.92180 8.79785 24 ft 24 kts 24°
2026-04-23 19:12 41.92342 8.79884 24 ft 26 kts 24°
2026-04-23 19:12 41.92517 8.79995 25 ft 28 kts 27°
2026-04-23 19:13 41.92696 8.80110 25 ft 28 kts 25°
2026-04-23 19:13 41.92851 8.80264 26 ft 27 kts 45°
2026-04-23 19:13 41.92952 8.80413 28 ft 12 kts 62°
2026-04-23 19:13 41.92950 8.80518 28 ft 12 kts 118°
2026-04-23 19:14 41.92876 8.80552 28 ft 13 kts 199°
2026-04-23 19:14 41.92789 8.80500 27 ft 14 kts 207°
2026-04-23 19:14 41.92654 8.80413 26 ft 49 kts 205°
2026-04-23 19:14 41.92100 8.80069 24 ft 124 kts 205°
2026-04-23 19:15 41.91119 8.79453 148 ft 173 kts 205°
2026-04-23 19:15 41.90052 8.78760 955 ft 170 kts 213°
2026-04-23 19:15 41.89313 8.77572 1717 ft 172 kts 245°
2026-04-23 19:15 41.88798 8.76093 2278 ft 183 kts 245°
2026-04-23 19:16 41.88201 8.74513 2749 ft 199 kts 243°
2026-04-23 19:16 41.87525 8.72822 3223 ft 216 kts 242°
2026-04-23 19:16 41.86760 8.70961 3613 ft 241 kts 242°
2026-04-23 19:17 41.85004 8.66758 4740 ft 275 kts 242°
2026-04-23 19:17 41.84069 8.64531 5551 ft 282 kts 242°
2026-04-23 19:17 41.83105 8.62232 6421 ft 286 kts 242°
2026-04-23 19:17 41.82400 8.59749 7220 ft 289 kts 267°
2026-04-23 19:18 41.82662 8.57148 8052 ft 286 kts 294°
2026-04-23 19:18 41.83400 8.54695 8873 ft 289 kts 296°
2026-04-23 19:18 41.84156 8.52181 9655 ft 295 kts 296°
2026-04-23 19:18 41.84906 8.49639 10444 ft 299 kts 295°
2026-04-23 19:19 41.86474 8.44231 11383 ft 330 kts 295°
2026-04-23 19:19 41.87322 8.41273 11730 ft 348 kts 294°
2026-04-23 19:20 41.89129 8.34912 12384 ft 382 kts 294°
2026-04-23 19:20 41.90075 8.31553 12998 ft 388 kts 294°
2026-04-23 19:20 41.91029 8.28162 13700 ft 391 kts 294°
2026-04-23 19:20 41.91991 8.24738 14392 ft 394 kts 293°
2026-04-23 19:21 41.92951 8.21320 15079 ft 397 kts 293°
2026-04-23 19:21 41.94902 8.14367 16403 ft 402 kts 293°
2026-04-23 19:21 41.95890 8.10839 17055 ft 404 kts 293°
2026-04-23 19:22 41.96869 8.07337 17688 ft 406 kts 293°
2026-04-23 19:22 41.97858 8.03793 18294 ft 408 kts 292°
2026-04-23 19:22 41.99858 7.96618 19405 ft 415 kts 292°
2026-04-23 19:23 42.00869 7.92981 19927 ft 419 kts 292°
2026-04-23 19:23 42.01886 7.89312 20437 ft 423 kts 292°
2026-04-23 19:23 42.02909 7.85618 20940 ft 426 kts 292°
2026-04-23 19:24 42.04986 7.78107 21932 ft 433 kts 292°
2026-04-23 19:24 42.06031 7.74319 22421 ft 435 kts 292°
2026-04-23 19:24 42.08141 7.66651 23352 ft 441 kts 292°
2026-04-23 19:25 42.10275 7.58878 24110 ft 446 kts 292°
2026-04-23 19:25 42.12404 7.51094 24137 ft 445 kts 292°
2026-04-23 19:26 42.14529 7.43304 24139 ft 444 kts 292°
2026-04-23 19:26 42.15599 7.39370 24142 ft 444 kts 292°
2026-04-23 19:27 42.17713 7.31579 24146 ft 445 kts 292°
2026-04-23 19:27 42.20872 7.19895 24151 ft 443 kts 292°
2026-04-23 19:28 42.22976 7.12085 24150 ft 443 kts 292°
2026-04-23 19:28 42.25058 7.04329 24153 ft 441 kts 292°
2026-04-23 19:29 42.26094 7.00464 24151 ft 441 kts 292°
2026-04-23 19:29 42.28167 6.92694 24151 ft 441 kts 292°
2026-04-23 19:30 42.30229 6.84953 24147 ft 441 kts 292°
2026-04-23 19:30 42.31264 6.81058 24152 ft 440 kts 292°
2026-04-23 19:30 42.33321 6.73299 24150 ft 440 kts 293°
2026-04-23 19:31 42.34346 6.69420 24149 ft 438 kts 293°
2026-04-23 19:31 42.35373 6.65530 24154 ft 438 kts 293°
2026-04-23 19:31 42.36383 6.61700 24149 ft 437 kts 293°
2026-04-23 19:31 42.37399 6.57837 24153 ft 436 kts 293°
2026-04-23 19:32 42.38419 6.53961 24157 ft 436 kts 293°
2026-04-23 19:32 42.39418 6.50151 24143 ft 434 kts 293°
2026-04-23 19:32 42.40418 6.46326 24155 ft 432 kts 293°
2026-04-23 19:32 42.41423 6.42487 24152 ft 432 kts 294°
2026-04-23 19:33 42.42418 6.38677 24161 ft 432 kts 293°
2026-04-23 19:33 42.43417 6.34846 24155 ft 432 kts 293°
2026-04-23 19:33 42.45396 6.27242 24158 ft 430 kts 293°
2026-04-23 19:34 42.46388 6.23416 24155 ft 430 kts 293°
2026-04-23 19:34 42.47377 6.19595 24153 ft 428 kts 293°
2026-04-23 19:34 42.49330 6.12037 24150 ft 424 kts 293°
2026-04-23 19:35 42.50292 6.08302 24160 ft 423 kts 293°
2026-04-23 19:35 42.51252 6.04573 24152 ft 423 kts 293°
2026-04-23 19:35 42.52220 6.00805 24153 ft 421 kts 293°
2026-04-23 19:35 42.53183 5.97056 24156 ft 421 kts 293°
2026-04-23 19:36 42.54138 5.93336 24155 ft 420 kts 293°
2026-04-23 19:36 42.55095 5.89600 24160 ft 421 kts 293°
2026-04-23 19:36 42.56055 5.85844 24162 ft 421 kts 293°
2026-04-23 19:36 42.56998 5.82149 24160 ft 421 kts 293°
2026-04-23 19:37 42.57955 5.78389 24061 ft 422 kts 293°
2026-04-23 19:37 42.58900 5.74666 23555 ft 419 kts 293°
2026-04-23 19:37 42.59850 5.70923 23025 ft 416 kts 293°
2026-04-23 19:37 42.60776 5.67268 22490 ft 412 kts 293°
2026-04-23 19:38 42.61696 5.63627 21954 ft 408 kts 292°
2026-04-23 19:38 42.62605 5.60029 21417 ft 404 kts 292°
2026-04-23 19:38 42.63515 5.56426 20876 ft 401 kts 292°
2026-04-23 19:38 42.64410 5.52876 20340 ft 398 kts 292°
2026-04-23 19:39 42.65303 5.49325 19807 ft 395 kts 292°
2026-04-23 19:39 42.66175 5.45852 19282 ft 392 kts 292°
2026-04-23 19:39 42.67044 5.42385 18761 ft 390 kts 292°
2026-04-23 19:39 42.67917 5.38894 18229 ft 387 kts 291°
2026-04-23 19:40 42.68789 5.35482 17704 ft 385 kts 295°
2026-04-23 19:40 42.70106 5.32332 17159 ft 378 kts 310°
2026-04-23 19:40 42.71970 5.29843 16921 ft 381 kts 324°
2026-04-23 19:40 42.74226 5.27896 16946 ft 385 kts 330°
2026-04-23 19:41 42.76511 5.26078 16967 ft 385 kts 330°
2026-04-23 19:41 42.78830 5.24247 16987 ft 386 kts 330°
2026-04-23 19:41 42.81168 5.22393 17006 ft 387 kts 330°
2026-04-23 19:41 42.83483 5.20551 17019 ft 387 kts 330°
2026-04-23 19:42 42.85784 5.18714 16996 ft 388 kts 330°
2026-04-23 19:42 42.88134 5.16834 16462 ft 388 kts 330°
2026-04-23 19:42 42.90418 5.15004 15877 ft 386 kts 330°
2026-04-23 19:42 42.92762 5.13207 15294 ft 383 kts 334°
2026-04-23 19:43 42.95184 5.11756 14727 ft 380 kts 340°
2026-04-23 19:43 42.97697 5.10663 14149 ft 378 kts 345°
2026-04-23 19:43 43.00197 5.09769 13598 ft 376 kts 346°
2026-04-23 19:43 43.02721 5.08902 13046 ft 374 kts 347°
2026-04-23 19:44 43.05224 5.08044 12503 ft 371 kts 347°
2026-04-23 19:44 43.07719 5.07184 11964 ft 369 kts 347°
2026-04-23 19:44 43.10196 5.06326 11479 ft 365 kts 347°
2026-04-23 19:44 43.12636 5.05476 11195 ft 355 kts 347°
2026-04-23 19:45 43.14995 5.04653 11002 ft 342 kts 347°
2026-04-23 19:45 43.17254 5.03864 10813 ft 330 kts 347°
2026-04-23 19:45 43.19429 5.03137 10641 ft 318 kts 349°
2026-04-23 19:45 43.21589 5.02668 10475 ft 306 kts 355°
2026-04-23 19:46 43.23672 5.02452 10336 ft 295 kts 358°
2026-04-23 19:46 43.25660 5.02308 10209 ft 284 kts 359°
2026-04-23 19:46 43.27639 5.02172 9862 ft 284 kts 359°
2026-04-23 19:46 43.29593 5.02035 9507 ft 283 kts 359°
2026-04-23 19:47 43.31562 5.01895 9162 ft 282 kts 359°
2026-04-23 19:47 43.33513 5.01788 8825 ft 280 kts
2026-04-23 19:47 43.35445 5.01842 8489 ft 278 kts
2026-04-23 19:47 43.37380 5.01937 8152 ft 276 kts
2026-04-23 19:48 43.39305 5.02036 7829 ft 274 kts
2026-04-23 19:48 43.41204 5.02132 7510 ft 273 kts
2026-04-23 19:48 43.43085 5.01985 7158 ft 274 kts 345°
2026-04-23 19:48 43.44748 5.00732 6731 ft 280 kts 319°
2026-04-23 19:49 43.46140 4.98861 6258 ft 284 kts 316°
2026-04-23 19:49 43.47548 4.96913 5773 ft 287 kts 316°
2026-04-23 19:49 43.48960 4.94985 5338 ft 288 kts 317°
2026-04-23 19:49 43.50364 4.93094 5066 ft 282 kts 317°
2026-04-23 19:50 43.51733 4.91261 5012 ft 268 kts 317°
2026-04-23 19:50 43.53057 4.89492 5011 ft 260 kts 317°
2026-04-23 19:50 43.54340 4.87781 5012 ft 257 kts 317°
2026-04-23 19:50 43.55606 4.86091 5006 ft 246 kts 317°
2026-04-23 19:51 43.56905 4.84678 4978 ft 229 kts 340°
2026-04-23 19:51 43.58393 4.84539 4982 ft 213 kts 21°
2026-04-23 19:51 43.59603 4.85616 5002 ft 208 kts 53°
2026-04-23 19:51 43.60347 4.87291 5022 ft 206 kts 63°
2026-04-23 19:52 43.61028 4.89026 4996 ft 207 kts 62°
2026-04-23 19:52 43.61722 4.90750 4731 ft 207 kts 61°
2026-04-23 19:52 43.62351 4.92515 4466 ft 204 kts 78°
2026-04-23 19:52 43.62250 4.94415 4243 ft 202 kts 112°
2026-04-23 19:53 43.61488 4.96055 4051 ft 205 kts 128°
2026-04-23 19:53 43.60544 4.97524 4021 ft 206 kts 131°
2026-04-23 19:53 43.59545 4.98976 4010 ft 207 kts 132°
2026-04-23 19:53 43.58544 5.00398 3834 ft 207 kts 132°
2026-04-23 19:54 43.57538 5.01817 3559 ft 206 kts 132°
2026-04-23 19:54 43.56541 5.03224 3285 ft 206 kts 132°
2026-04-23 19:54 43.55561 5.04608 3097 ft 199 kts 132°
2026-04-23 19:54 43.54610 5.05954 2826 ft 195 kts 131°
2026-04-23 19:55 43.53676 5.07279 2544 ft 191 kts 132°
2026-04-23 19:55 43.52761 5.08579 2268 ft 186 kts 132°
2026-04-23 19:55 43.51889 5.09816 1999 ft 174 kts 132°
2026-04-23 19:55 43.51071 5.10977 1758 ft 164 kts 132°
2026-04-23 19:56 43.50299 5.12075 1567 ft 155 kts 133°
2026-04-23 19:56 43.49550 5.13140 1383 ft 154 kts 133°
2026-04-23 19:56 43.48837 5.14155 1191 ft 142 kts 133°
2026-04-23 19:56 43.48167 5.15108 998 ft 137 kts 134°
2026-04-23 19:57 43.47503 5.16052 819 ft 137 kts 134°
2026-04-23 19:57 43.46839 5.16997 635 ft 137 kts 134°
2026-04-23 19:57 43.46173 5.17944 452 ft 137 kts 134°
2026-04-23 19:57 43.45513 5.18884 269 ft 137 kts 135°
2026-04-23 19:58 43.44858 5.19831 88 ft 137 kts 135°
2026-04-23 19:58 43.44239 5.20703 19 ft 96 kts 139°
2026-04-23 19:58 43.43975 5.21059 25 ft 17 kts 133°
2026-04-23 19:58 43.43886 5.21187 28 ft 18 kts 134°
2026-04-23 19:59 43.43800 5.21310 31 ft 16 kts 134°
2026-04-23 19:59 43.43721 5.21422 34 ft 17 kts 133°
2026-04-23 19:59 43.43624 5.21560 38 ft 22 kts 134°
2026-04-23 19:59 43.43508 5.21725 43 ft 25 kts 133°
2026-04-23 20:00 43.43381 5.21911 48 ft 25 kts 130°
2026-04-23 20:00 43.43333 5.22126 52 ft 23 kts 90°
2026-04-23 20:00 43.43380 5.22271 54 ft 12 kts 20°
2026-04-23 20:00 43.43468 5.22244 52 ft 13 kts 332°
2026-04-23 20:01 43.43557 5.22173 49 ft 15 kts 330°
2026-04-23 20:01 43.43652 5.22094 46 ft 16 kts 327°
2026-04-23 20:01 43.43760 5.22033 43 ft 17 kts
2026-04-23 20:01 43.43853 5.22125 42 ft 16 kts 58°
2026-04-23 20:02 43.43827 5.22247 44 ft 11 kts 140°
2026-04-23 20:02 43.43814 5.22276 45 ft 0 kts 101°
2026-04-23 20:02 43.43814 5.22285 45 ft 2 kts 87°
2026-04-23 20:02 43.43816 5.22311 46 ft 0 kts 77°